When you browse on this site, cookies collect data to enhance your experience and personalize the content and advertising you see.
Visit our Privacy Policy to learn more. By continuing to use the site, you agree to this use of cookies and data.

Hourly Weather Vinnitsa

Today, 4 July, Saturday

Time Temperature Precipitation Wind Pressure Humidity
00:00 +22°C° 0 mm 1 mps 733 mmHg 78%
01:00 +21°C° 0 mm 1 mps 733 mmHg 79%
02:00 +21°C° 0 mm 1 mps 733 mmHg 82%
03:00 +20°C° 0 mm 2 mps 733 mmHg 84%
04:00 +20°C° 0 mm 2 mps 733 mmHg 86%
05:00 +20°C° 0 mm 3 mps 733 mmHg 89%
06:00 +20°C° 0 mm 3 mps 734 mmHg 89%
07:00 +20°C° 0 mm 3 mps 734 mmHg 89%
08:00 +20°C° 0 mm 2 mps 734 mmHg 89%
09:00 +20°C° 0 mm 2 mps 734 mmHg 87%
10:00 +21°C° 0 mm 2 mps 735 mmHg 86%
11:00 +21°C° 0 mm 2 mps 735 mmHg 85%
12:00 +23°C° 0 mm 2 mps 735 mmHg 82%
13:00 +24°C° 0 mm 2 mps 735 mmHg 79%
14:00 +24°C° 0 mm 2 mps 735 mmHg 77%
15:00 +25°C° 0 mm 2 mps 735 mmHg 76%
16:00 +25°C° 0 mm 3 mps 734 mmHg 76%
17:00 +25°C° 0 mm 3 mps 734 mmHg 76%
18:00 +24°C° 0.2 mm 3 mps 734 mmHg 80%
19:00 +23°C° 0.2 mm 2 mps 734 mmHg 85%
20:00 +21°C° 0.2 mm 2 mps 734 mmHg 90%
21:00 +20°C° 0.4 mm 2 mps 734 mmHg 91%
22:00 +20°C° 0.4 mm 2 mps 734 mmHg 92%
23:00 +19°C° 0.4 mm 2 mps 734 mmHg 94%

Tomorrow, 5 July, Sunday

Time Temperature Precipitation Wind Pressure Humidity
00:00 +19°C° 0.1 mm 2 mps 734 mmHg 94%
01:00 +19°C° 0.1 mm 2 mps 734 mmHg 94%
02:00 +19°C° 0.1 mm 2 mps 734 mmHg 94%
03:00 +19°C° 0.1 mm 2 mps 734 mmHg 94%
04:00 +19°C° 0.1 mm 2 mps 734 mmHg 95%
05:00 +18°C° 0.1 mm 2 mps 734 mmHg 95%
06:00 +20°C° 0 mm 3 mps 734 mmHg 91%
07:00 +21°C° 0 mm 3 mps 734 mmHg 88%
08:00 +22°C° 0 mm 3 mps 735 mmHg 84%
09:00 +24°C° 0.1 mm 3 mps 735 mmHg 79%
10:00 +25°C° 0.1 mm 3 mps 735 mmHg 74%
11:00 +26°C° 0.1 mm 4 mps 735 mmHg 69%
12:00 +27°C° 0.4 mm 4 mps 735 mmHg 69%
13:00 +27°C° 0.4 mm 4 mps 735 mmHg 68%
14:00 +27°C° 0.4 mm 4 mps 735 mmHg 68%
15:00 +27°C° 0.1 mm 4 mps 735 mmHg 68%
16:00 +27°C° 0.1 mm 3 mps 734 mmHg 67%
17:00 +27°C° 0.1 mm 3 mps 734 mmHg 67%
18:00 +25°C° 0 mm 3 mps 734 mmHg 72%
19:00 +24°C° 0 mm 2 mps 734 mmHg 76%
20:00 +23°C° 0 mm 2 mps 734 mmHg 81%
21:00 +21°C° 0 mm 2 mps 734 mmHg 83%
22:00 +20°C° 0 mm 2 mps 734 mmHg 85%
23:00 +19°C° 0 mm 2 mps 735 mmHg 88%

Day after tomorrow, 6 July, Monday

Time Temperature Precipitation Wind Pressure Humidity
00:00 +19°C° 0 mm 2 mps 734 mmHg 89%
01:00 +18°C° 0 mm 2 mps 734 mmHg 90%
02:00 +18°C° 0 mm 2 mps 734 mmHg 90%
03:00 +18°C° 0 mm 2 mps 734 mmHg 90%
04:00 +18°C° 0 mm 1 mps 734 mmHg 89%
05:00 +18°C° 0 mm 1 mps 733 mmHg 88%
06:00 +20°C° 0 mm 1 mps 734 mmHg 82%
07:00 +22°C° 0 mm 1 mps 734 mmHg 77%
08:00 +24°C° 0 mm 1 mps 734 mmHg 71%
09:00 +25°C° 0 mm 1 mps 734 mmHg 67%
10:00 +24°C° 0 mm 0 mps 734 mmHg 63%
11:00 +26°C° 0 mm 0 mps 733 mmHg 59%
12:00 +26°C° 0 mm 0 mps 733 mmHg 56%
13:00 +27°C° 0 mm 0 mps 733 mmHg 53%
14:00 +28°C° 0 mm 0 mps 732 mmHg 50%
15:00 +29°C° 0 mm 1 mps 732 mmHg 52%
16:00 +29°C° 0 mm 1 mps 731 mmHg 53%
17:00 +29°C° 0 mm 1 mps 731 mmHg 55%
18:00 +27°C° 0 mm 1 mps 731 mmHg 62%
19:00 +26°C° 0 mm 2 mps 731 mmHg 69%
20:00 +24°C° 0 mm 2 mps 730 mmHg 75%
21:00 +23°C° 0 mm 2 mps 730 mmHg 77%
22:00 +22°C° 0 mm 1 mps 730 mmHg 78%
23:00 +22°C° 0 mm 1 mps 730 mmHg 80%

7 July, Tuesday

Time Temperature Precipitation Wind Pressure Humidity
00:00 +21°C° 0 mm 1 mps 730 mmHg 82%
01:00 +21°C° 0 mm 1 mps 729 mmHg 84%
02:00 +20°C° 0 mm 1 mps 729 mmHg 86%
03:00 +21°C° 0 mm 1 mps 729 mmHg 87%
04:00 +21°C° 0 mm 1 mps 729 mmHg 87%
05:00 +21°C° 0 mm 1 mps 729 mmHg 88%
06:00 +22°C° 0.3 mm 1 mps 729 mmHg 84%
07:00 +24°C° 0.3 mm 2 mps 729 mmHg 80%
08:00 +25°C° 0.3 mm 2 mps 729 mmHg 76%
09:00 +26°C° 0.7 mm 2 mps 729 mmHg 71%
10:00 +27°C° 0.7 mm 2 mps 728 mmHg 67%
11:00 +28°C° 0.7 mm 1 mps 728 mmHg 62%
12:00 +27°C° 1.9 mm 2 mps 728 mmHg 69%
13:00 +25°C° 1.9 mm 2 mps 728 mmHg 75%
14:00 +24°C° 1.9 mm 2 mps 728 mmHg 82%
15:00 +22°C° 1.2 mm 3 mps 728 mmHg 85%
16:00 +21°C° 1.2 mm 4 mps 728 mmHg 89%
17:00 +20°C° 1.2 mm 6 mps 728 mmHg 92%
18:00 +19°C° 0.8 mm 6 mps 728 mmHg 93%
19:00 +17°C° 0.8 mm 6 mps 729 mmHg 94%
20:00 +16°C° 0.8 mm 6 mps 729 mmHg 94%
21:00 +15°C° 0.7 mm 7 mps 729 mmHg 94%
22:00 +14°C° 0.7 mm 7 mps 729 mmHg 94%
23:00 +12°C° 0.7 mm 7 mps 729 mmHg 94%

8 July, Wednesday

Time Temperature Precipitation Wind Pressure Humidity
00:00 +12°C° 1.7 mm 7 mps 729 mmHg 94%
01:00 +12°C° 1.7 mm 8 mps 729 mmHg 94%
02:00 +11°C° 1.7 mm 8 mps 730 mmHg 93%
03:00 +11°C° 1.4 mm 8 mps 730 mmHg 94%
04:00 +11°C° 1.4 mm 7 mps 730 mmHg 94%
05:00 +11°C° 1.4 mm 7 mps 731 mmHg 94%
06:00 +11°C° 0.9 mm 7 mps 731 mmHg 94%
07:00 +11°C° 0.9 mm 8 mps 732 mmHg 93%
08:00 +11°C° 0.9 mm 8 mps 732 mmHg 92%
09:00 +12°C° 0.6 mm 8 mps 733 mmHg 90%
10:00 +12°C° 0.6 mm 7 mps 733 mmHg 87%
11:00 +12°C° 0.6 mm 7 mps 734 mmHg 85%
12:00 +14°C° 0.1 mm 7 mps 734 mmHg 79%
13:00 +16°C° 0.1 mm 7 mps 734 mmHg 73%
14:00 +17°C° 0.1 mm 7 mps 734 mmHg 67%
15:00 +17°C° 0 mm 7 mps 734 mmHg 67%
16:00 +17°C° 0 mm 6 mps 734 mmHg 66%
17:00 +19°C° 0 mm 6 mps 734 mmHg 66%
18:00 +16°C° 0.1 mm 5 mps 735 mmHg 72%
19:00 +15°C° 0.1 mm 4 mps 735 mmHg 78%
20:00 +14°C° 0.1 mm 4 mps 735 mmHg 85%
21:00 +13°C° 0 mm 4 mps 735 mmHg 86%
22:00 +12°C° 0 mm 4 mps 736 mmHg 88%
23:00 +12°C° 0 mm 4 mps 736 mmHg 90%

9 July, Thursday

Time Temperature Precipitation Wind Pressure Humidity
00:00 +11°C° 0 mm 3 mps 736 mmHg 91%
01:00 +11°C° 0 mm 3 mps 736 mmHg 92%
02:00 +11°C° 0 mm 3 mps 736 mmHg 92%
03:00 +11°C° 0 mm 3 mps 737 mmHg 92%
04:00 +11°C° 0 mm 3 mps 737 mmHg 93%
05:00 +11°C° 0 mm 3 mps 737 mmHg 93%
06:00 +12°C° 0 mm 3 mps 737 mmHg 87%
07:00 +14°C° 0 mm 3 mps 737 mmHg 81%
08:00 +17°C° 0 mm 4 mps 738 mmHg 75%
09:00 +18°C° 0 mm 4 mps 738 mmHg 71%
10:00 +19°C° 0 mm 4 mps 738 mmHg 67%
11:00 +21°C° 0 mm 4 mps 738 mmHg 62%
12:00 +21°C° 0.1 mm 4 mps 738 mmHg 62%
13:00 +21°C° 0.1 mm 4 mps 738 mmHg 61%
14:00 +22°C° 0.1 mm 4 mps 738 mmHg 60%
15:00 +22°C° 0 mm 3 mps 738 mmHg 61%
16:00 +22°C° 0 mm 3 mps 738 mmHg 62%
17:00 +22°C° 0 mm 3 mps 737 mmHg 63%
18:00 +20°C° 0 mm 2 mps 737 mmHg 68%
19:00 +19°C° 0 mm 2 mps 737 mmHg 73%
20:00 +18°C° 0 mm 1 mps 737 mmHg 78%
21:00 +18°C° 0 mm 1 mps 737 mmHg 81%
22:00 +16°C° 0 mm 1 mps 737 mmHg 83%
23:00 +15°C° 0 mm 1 mps 737 mmHg 85%
Show more